This is the latest recevied weather packets stored in our database for station/object KC4JIR. If no packets are shown the sender has not sent any weather packets the latest 10 day(s).
| Time | Temp. | Humidity | Pressure | Rain* | Wind** | Luminosity | Snow |
|---|---|---|---|---|---|---|---|
| 1777920416 | 25.56° C | 32% | 1014.3 hPa | 0 mm | - | 724 W/m² | - |
| 1777920111 | 25.56° C | 32% | 1014.4 hPa | 0 mm | - | 740 W/m² | - |
| 1777919808 | 25.56° C | 34% | 1014.5 hPa | 0 mm | - | 748 W/m² | - |
| 1777919505 | 26.11° C | 31% | 1014.6 hPa | 0 mm | - | 751 W/m² | - |
| 1777919203 | 25.56° C | 34% | 1014.6 hPa | 0 mm | - | 723 W/m² | - |
| 1777918900 | 25.56° C | 32% | 1014.6 hPa | 0 mm | - | 650 W/m² | - |
| 1777918598 | 25.56° C | 37% | 1014.4 hPa | 0 mm | - | 677 W/m² | - |
| 1777918295 | 25° C | 35% | 1014.7 hPa | 0 mm | - | 661 W/m² | - |
| 1777917994 | 25.56° C | 33% | 1014.5 hPa | 0 mm | - | 661 W/m² | - |
| 1777917693 | 25.56° C | 34% | 1014.5 hPa | 0 mm | - | 685 W/m² | - |
| 1777917389 | 25° C | 35% | 1014.6 hPa | 0 mm | - | 724 W/m² | - |
| 1777917086 | 25° C | 35% | 1014.9 hPa | 0 mm | - | 354 W/m² | - |
| 1777916784 | 25° C | 36% | 1014.9 hPa | 0 mm | - | 749 W/m² | - |
| 1777916480 | 25° C | 34% | 1014.9 hPa | 0 mm | - | 765 W/m² | - |
| 1777916178 | 25.56° C | 35% | 1015 hPa | 0 mm | - | 547 W/m² | - |
| 1777915875 | 25.56° C | 35% | 1014.9 hPa | 0 mm | - | 745 W/m² | - |
| 1777915571 | 25.56° C | 34% | 1015 hPa | 0 mm | - | 753 W/m² | - |
| 1777915268 | 25.56° C | 40% | 1015.1 hPa | 0 mm | - | 668 W/m² | - |
| 1777914964 | 24.44° C | 36% | 1014.9 hPa | 0 mm | - | 631 W/m² | - |
| 1777914662 | 24.44° C | 36% | 1014.9 hPa | 0 mm | - | 796 W/m² | - |
| 1777914357 | 24.44° C | 36% | 1015.1 hPa | 0 mm | - | 809 W/m² | - |
| 1777914055 | 24.44° C | 36% | 1015.2 hPa | 0 mm | - | 809 W/m² | - |
| 1777913751 | 23.89° C | 43% | 1015.2 hPa | 0 mm | - | 790 W/m² | - |
| 1777913448 | 23.89° C | 38% | 1015.1 hPa | 0 mm | - | 706 W/m² | - |
| 1777913144 | 24.44° C | 37% | 1015.1 hPa | 0 mm | - | 680 W/m² | - |
* Rain latest hour (hover to see other rain measurements)
** Current wind speed in m/s (hover to see current wind gust speed)